Glenwood, MN

1:28 AM CDT on September 27, 2016 (GMT -0500)
Glenwood Municipal

Weather History for KGHW - March, 2013

Change the Weather History Date:

Saturday, March 16, 2013

  Actual Average Record
Temperature  
Mean Temperature 10 °F -  
Max Temperature 21 °F 37 °F 75 °F (2012)
Min Temperature 0 °F 19 °F -4 °F (1997)
Degree Days  
Heating Degree Days 54    
Moisture  
Dew Point 6 °F    
Average Humidity 81    
Maximum Humidity 93    
Minimum Humidity 67    
Precipitation  
Precipitation 0.00 in - - ()
Sea Level Pressure  
Sea Level Pressure 30.12 in    
Wind  
Wind Speed 9 mph (NW)    
Max Wind Speed 16 mph    
Max Gust Speed 21 mph    
Visibility 10 miles    
Events Snow    
Averages and records for this station are not official NWS values.
T = Trace of Precipitation, MM = Missing Value Source: NWS Daily Summary

Daily Weather History Graph

Daily Weather History Graph

Search for Another Location

Airport or City:

Trip Planner

Search our weather history database for the weather conditions in past years. The results will help you decide how hot, cold, wet, or windy it might be!

Date:

Astronomy

Mar. 16, 2013 Rise Set
Actual Time 7:31 AM CDT 7:28 PM CDT
Civil Twilight 7:01 AM CDT 7:58 PM CDT
Nautical Twilight 6:27 AM CDT 8:33 PM CDT
Astronomical Twilight 5:52 AM CDT 9:08 PM CDT
Moon 9:46 AM CDT (3/16) No Moon Set
Length of Visible Light 12h 56m
Length of Day
11h 57m
Waxing Crescent, 23% of the Moon is Illuminated
Mar 16
Waxing Crescent
Mar 19
First Quarter
Mar 27
Full
Apr 2
Last Quarter
Apr 10
New

Hourly Weather History & Observations

Time (CDT) Temp. Windchill Dew Point Humidity Pressure Visibility Wind Dir Wind Speed Gust Speed Precip Events Conditions
12:13 AM 21.2 °F 10.9 °F 19.4 °F 93% 29.95 in 5.0 mi NNE 9.2 mph - N/A   Overcast
12:33 AM 21.2 °F 11.7 °F 19.4 °F 93% 29.96 in 7.0 mi NNE 8.1 mph - N/A   Overcast
12:54 AM 21.2 °F 10.9 °F 19.4 °F 93% 29.96 in 7.0 mi NNE 9.2 mph - N/A   Overcast
1:13 AM 21.2 °F 12.6 °F 19.4 °F 93% 29.95 in 10.0 mi NNE 6.9 mph - N/A   Overcast
1:33 AM 21.2 °F 13.6 °F 19.4 °F 93% 29.96 in 10.0 mi NNE 5.8 mph - N/A   Overcast
1:46 AM 21.2 °F 12.6 °F 19.4 °F 93% 29.96 in 10.0 mi North 6.9 mph - N/A   Overcast
2:08 AM 21.2 °F 12.6 °F 19.4 °F 93% 29.96 in 10.0 mi North 6.9 mph - N/A   Overcast
2:33 AM 21.2 °F 10.9 °F 17.6 °F 86% 29.97 in 10.0 mi North 9.2 mph - N/A   Overcast
2:54 AM 19.4 °F 10.4 °F 17.6 °F 93% 29.98 in 10.0 mi North 6.9 mph - N/A   Overcast
3:13 AM 19.4 °F 8.6 °F 15.8 °F 86% 29.98 in 7.0 mi North 9.2 mph - N/A Snow Light Snow
3:54 AM 17.6 °F 5.7 °F 15.8 °F 93% 30.00 in 5.0 mi North 10.4 mph - N/A Snow Light Snow
4:13 AM 15.8 °F - 12.2 °F 86% 30.02 in 7.0 mi North - - N/A Snow Light Snow
4:53 AM 15.8 °F 3.4 °F 12.2 °F 86% 30.03 in 7.0 mi North 10.4 mph - N/A Snow Light Snow
5:33 AM 15.8 °F 4.2 °F 12.2 °F 86% 30.05 in 10.0 mi North 9.2 mph - N/A Snow Light Snow
5:53 AM 14.0 °F 2.0 °F 10.4 °F 86% 30.06 in 10.0 mi NNW 9.2 mph - N/A Snow Light Snow
6:13 AM 14.0 °F 1.2 °F 10.4 °F 86% 30.07 in 10.0 mi NNW 10.4 mph - N/A Snow Light Snow
6:34 AM 12.2 °F -1.0 °F 8.6 °F 85% 30.08 in 10.0 mi North 10.4 mph - N/A   Overcast
6:53 AM 10.4 °F -2.4 °F 6.8 °F 85% 30.08 in 10.0 mi North 9.2 mph - N/A   Scattered Clouds
7:13 AM 8.6 °F -4.7 °F 6.8 °F 92% 30.10 in 10.0 mi NNW 9.2 mph - N/A   Clear
7:33 AM 8.6 °F -4.7 °F 5.0 °F 85% 30.10 in 10.0 mi NNW 9.2 mph - N/A   Clear
7:53 AM 8.6 °F -3.7 °F 3.2 °F 79% 30.11 in 10.0 mi NNW 8.1 mph - N/A   Clear
8:13 AM 8.6 °F -2.6 °F 3.2 °F 79% 30.12 in 10.0 mi NNW 6.9 mph - N/A   Clear
8:34 AM 8.6 °F -3.7 °F 3.2 °F 79% 30.12 in 10.0 mi NNW 8.1 mph - N/A   Clear
8:53 AM 8.6 °F -3.7 °F 3.2 °F 79% 30.13 in 10.0 mi NW 8.1 mph - N/A   Clear
9:13 AM 8.6 °F -2.6 °F 3.2 °F 79% 30.14 in 10.0 mi NW 6.9 mph - N/A   Clear
9:34 AM 8.6 °F -2.6 °F 3.2 °F 79% 30.14 in 10.0 mi NW 6.9 mph - N/A   Clear
9:53 AM 8.6 °F -1.3 °F 3.2 °F 79% 30.15 in 10.0 mi NW 5.8 mph - N/A   Clear
10:13 AM 8.6 °F -1.3 °F 3.2 °F 79% 30.15 in 10.0 mi NW 5.8 mph - N/A   Clear
10:34 AM 10.4 °F -2.4 °F 5.0 °F 79% 30.16 in 10.0 mi WNW 9.2 mph - N/A   Clear
10:53 AM 10.4 °F -1.5 °F 5.0 °F 79% 30.16 in 10.0 mi WNW 8.1 mph - N/A   Clear
11:13 AM 10.4 °F -1.5 °F 5.0 °F 79% 30.16 in 10.0 mi WNW 8.1 mph - N/A   Clear
11:34 AM 10.4 °F -3.3 °F 5.0 °F 79% 30.16 in 10.0 mi NW 10.4 mph - N/A   Clear
11:53 AM 12.2 °F -1.0 °F 5.0 °F 73% 30.16 in 10.0 mi WNW 10.4 mph - N/A   Clear
12:13 PM 12.2 °F -1.8 °F 5.0 °F 73% 30.17 in 10.0 mi WNW 11.5 mph - N/A   Clear
12:34 PM 12.2 °F -2.5 °F 5.0 °F 73% 30.17 in 10.0 mi NW 12.7 mph - N/A   Clear
12:53 PM 12.2 °F -3.1 °F 6.8 °F 79% 30.17 in 10.0 mi NW 13.8 mph - N/A   Clear
1:13 PM 14.0 °F -1.4 °F 5.0 °F 67% 30.17 in 10.0 mi WNW 15.0 mph - N/A   Clear
1:33 PM 12.2 °F -2.5 °F 6.8 °F 79% 30.18 in 10.0 mi WNW 12.7 mph - N/A   Clear
1:53 PM 12.2 °F -3.1 °F 6.8 °F 79% 30.18 in 10.0 mi WNW 13.8 mph 18.4 mph N/A   Clear
2:13 PM 12.2 °F -3.1 °F 6.8 °F 79% 30.17 in 10.0 mi NW 13.8 mph 19.6 mph N/A   Clear
2:33 PM 12.2 °F -4.3 °F 6.8 °F 79% 30.16 in 10.0 mi NW 16.1 mph 20.7 mph N/A   Clear
2:53 PM 12.2 °F -3.7 °F 5.0 °F 73% 30.15 in 10.0 mi NW 15.0 mph - N/A   Clear
3:13 PM 12.2 °F -1.8 °F 5.0 °F 73% 30.15 in 10.0 mi NW 11.5 mph 17.3 mph N/A   Clear
3:33 PM 12.2 °F -2.5 °F 3.2 °F 67% 30.14 in 10.0 mi NW 12.7 mph - N/A   Clear
3:53 PM 12.2 °F -3.1 °F 3.2 °F 67% 30.14 in 10.0 mi WNW 13.8 mph - N/A   Clear
4:13 PM 10.4 °F -5.4 °F 3.2 °F 73% 30.14 in 10.0 mi WNW 13.8 mph - N/A   Clear
4:33 PM 12.2 °F -3.1 °F 3.2 °F 67% 30.14 in 10.0 mi NW 13.8 mph - N/A   Clear
4:53 PM 10.4 °F -4.1 °F 3.2 °F 73% 30.13 in 10.0 mi NW 11.5 mph - N/A   Clear
5:13 PM 10.4 °F -4.1 °F 3.2 °F 73% 30.14 in 10.0 mi WNW 11.5 mph - N/A   Clear
5:33 PM 10.4 °F -5.4 °F 3.2 °F 73% 30.14 in 10.0 mi WNW 13.8 mph - N/A   Clear
5:53 PM 10.4 °F -4.1 °F 3.2 °F 73% 30.15 in 10.0 mi West 11.5 mph - N/A   Clear
6:14 PM 8.6 °F -8.3 °F 1.4 °F 73% 30.15 in 10.0 mi WNW 15.0 mph - N/A   Clear
6:33 PM 8.6 °F -7.7 °F 1.4 °F 73% 30.15 in 10.0 mi WNW 13.8 mph - N/A   Clear
6:53 PM 6.8 °F -9.3 °F 1.4 °F 79% 30.16 in 10.0 mi WNW 12.7 mph - N/A   Clear
7:14 PM 6.8 °F -10.7 °F -0.4 °F 72% 30.17 in 10.0 mi WNW 15.0 mph - N/A   Clear
7:33 PM 5.0 °F -11.6 °F -0.4 °F 78% 30.18 in 10.0 mi WNW 12.7 mph - N/A   Clear
7:53 PM 3.2 °F -13.1 °F -0.4 °F 85% 30.19 in 10.0 mi WNW 11.5 mph - N/A   Clear
8:13 PM 3.2 °F -12.2 °F -0.4 °F 85% 30.20 in 10.0 mi WNW 10.4 mph - N/A   Clear
8:33 PM 3.2 °F -11.3 °F -0.4 °F 85% 30.20 in 10.0 mi WNW 9.2 mph - N/A   Clear
8:53 PM 3.2 °F -11.3 °F -2.2 °F 78% 30.21 in 10.0 mi WNW 9.2 mph - N/A   Clear
9:33 PM 1.4 °F -12.5 °F -2.2 °F 85% 30.22 in 10.0 mi WNW 8.1 mph - N/A   Clear
9:53 PM 1.4 °F -9.9 °F -2.2 °F 85% 30.23 in 10.0 mi WNW 5.8 mph - N/A   Clear
10:13 PM 1.4 °F -11.3 °F -2.2 °F 85% 30.23 in 10.0 mi WNW 6.9 mph - N/A   Clear
10:33 PM 1.4 °F -12.5 °F -2.2 °F 85% 30.23 in 10.0 mi NW 8.1 mph - N/A   Clear
10:53 PM -0.4 °F -13.4 °F -4.0 °F 85% 30.23 in 10.0 mi NW 6.9 mph - N/A   Clear
11:13 PM -0.4 °F -12.0 °F -4.0 °F 85% 30.23 in 10.0 mi NW 5.8 mph - N/A   Clear
11:33 PM 1.4 °F -11.3 °F -4.0 °F 78% 30.24 in 10.0 mi NW 6.9 mph - N/A   Clear
11:53 PM 1.4 °F -11.3 °F -4.0 °F 78% 30.24 in 10.0 mi NNW 6.9 mph - N/A   Clear